FW2970 Weather Reports


time (UTC)temp
F
wind
direction
speed
knots
gust
knots
rain 1hr
in
rain 24hr
in
rain mn
in
humidity
%
barometer
mb
20260507181555 52 214 13.0 17.4 0.00 0.18 0.01 86 1007.9
20260507174622 52 214 13.0 15.6 0.00 0.18 0.01 86 1008.0
20260507173052 52 220 13.9 16.5 0.00 0.18 0.01 88 1008.2
20260507171605 52 214 12.2 15.6 0.00 0.18 0.01 89 1008.2
20260507164553 52 210 11.3 13.9 0.00 0.18 0.01 87 1008.6
20260507163048 52 207 10.4 12.2 0.00 0.18 0.01 88 1008.8
20260507161551 54 220 6.1 9.6 0.00 0.18 0.01 82 1008.9
20260507154540 52 248 6.1 7.8 0.00 0.18 0.01 86 1009.3
20260507153038 51 258 3.5 5.2 0.00 0.18 0.01 88 1009.3
20260507151536 51 250 4.3 6.1 0.00 0.18 0.01 88 1009.4
20260507144534 51 266 0.9 5.2 0.00 0.18 0.01 88 1009.1
20260507143030 51 315 2.6 5.2 0.00 0.18 0.01 88 1009.3
20260507141528 50 321 5.2 7.8 0.00 0.18 0.01 87 1009.5
20260507134526 49 320 6.1 9.6 0.01 0.18 0.01 85 1009.2
20260507133026 49 316 7.0 10.4 0.01 0.18 0.01 85 1009.5
20260507131623 49 339 6.1 10.4 0.01 0.18 0.01 86 1009.4
20260507124521 48 331 7.0 11.3 0.00 0.17 0.00 89 1009.5
20260507123023 48 331 8.7 16.5 0.00 0.17 0.17 88 1009.7
20260507121515 49 321 7.8 13.9 0.00 0.17 0.17 88 1009.5
20260507114514 49 335 13.9 19.1 0.00 0.17 0.17 89 1009.3
20260507113021 49 313 13.9 19.1 0.00 0.17 0.17 89 1009.3
20260507111512 50 302 15.6 20.0 0.00 0.17 0.17 90 1009.5
20260507104507 51 326 8.7 12.2 0.00 0.17 0.17 95 1008.3
20260507103006 51 327 13.0 17.4 0.02 0.17 0.17 93 1008.6
20260507101506 51 359 12.2 19.1 0.08 0.17 0.17 95 1008.2
20260507094504 51 314 10.4 15.6 0.12 0.17 0.17 97 1007.5
20260507093003 52 308 9.6 15.6 0.12 0.16 0.16 98 1007.4
20260507091501 51 295 6.1 9.6 0.06 0.10 0.10 98 1007.9
20260507084603 51 252 5.2 11.3 0.02 0.05 0.05 98 1007.6
20260507083058 50 241 10.4 19.1 0.01 0.04 0.04 97 1007.8
20260507081555 50 249 7.8 11.3 0.01 0.04 0.04 98 1007.6
20260507074554 50 233 3.5 7.0 0.00 0.03 0.03 97 1006.7
20260507073057 50 205 6.1 7.0 0.00 0.03 0.03 97 1006.8
20260507071551 51 206 6.1 8.7 0.00 0.03 0.03 97 1007.0
20260507064550 52 229 7.8 10.4 0.00 0.03 0.03 97 1007.3
20260507063053 52 236 6.1 8.7 0.00 0.03 0.03 97 1007.1
20260507061546 52 244 7.0 11.3 0.00 0.03 0.03 97 1007.3
20260507054544 52 237 5.2 9.6 0.00 0.03 0.03 97 1008.1
20260507053044 52 218 4.3 10.4 0.00 0.03 0.03 97 1007.8
20260507051542 52 214 7.0 12.2 0.00 0.03 0.03 97 1008.1
20260507044550 52 216 11.3 17.4 0.00 0.03 0.03 97 1008.3
20260507043037 53 215 11.3 16.5 0.00 0.03 0.03 96 1008.3
20260507041535 54 212 7.8 13.9 0.00 0.03 0.03 96 1008.4
20260507034539 54 229 10.4 19.1 0.00 0.03 0.03 97 1008.7
20260507033041 54 230 11.3 18.2 0.00 0.03 0.03 96 1008.7
20260507031535 54 212 15.6 22.6 0.00 0.03 0.03 96 1008.5
20260507024535 54 229 11.3 17.4 0.00 0.03 0.03 96 1008.6
20260507023029 54 221 13.9 20.0 0.00 0.03 0.03 95 1008.8
20260507021544 54 219 13.9 19.1 0.00 0.03 0.03 95 1009.2
20260507014526 55 214 15.6 22.6 0.00 0.03 0.03 95 1009.4
20260507013032 55 224 15.6 22.6 0.00 0.03 0.03 95 1009.4
20260507011530 55 217 17.4 25.2 0.00 0.03 0.03 95 1009.4
20260507004524 56 217 20.9 28.7 0.00 0.03 0.03 95 1009.3
20260507003023 55 220 13.9 21.7 0.00 0.03 0.03 96 1009.4
20260507001523 55 233 15.6 21.7 0.00 0.03 0.03 95 1009.5
20260506234520 56 205 20.0 29.5 0.02 0.03 0.03 94 1009.3
20260506233019 56 217 15.6 22.6 0.02 0.03 0.03 95 1009.1
20260506231523 55 215 20.0 27.8 0.02 0.03 0.03 94 1009.2
20260506224516 55 210 18.2 25.2 0.01 0.01 0.01 93 1009.8
20260506223017 56 198 19.1 26.1 0.01 0.01 0.01 92 1009.9
20260506221511 57 214 20.9 31.3 0.01 0.01 0.01 89 1010.0
20260506214511 58 208 18.2 23.5 0.00 0.00 0.00 88 1009.9
20260506213007 57 198 19.1 23.5 0.00 0.00 0.00 88 1010.0
20260506211505 58 204 19.1 25.2 0.00 0.00 0.00 87 1010.1
20260506204505 58 179 19.1 25.2 0.00 0.00 0.00 86 1010.1
20260506203103 58 180 20.0 25.2 0.00 0.00 0.00 86 1010.4
20260506201507 58 188 21.7 27.8 0.00 0.00 0.00 86 1010.3
20260506194623 58 185 20.0 26.9 0.00 0.00 0.00 86 1010.7
20260506193059 58 213 19.1 26.1 0.00 0.00 0.00 86 1011.1
20260506191600 58 205 20.0 28.7 0.00 0.00 0.00 85 1011.0
20260506190203 58 189 20.9 27.8 0.00 0.00 0.00 85 1010.9
20260506184605 58 195 21.7 29.5 0.00 0.00 0.00 85 1011.1
20260506183103 58 202 20.9 26.9 0.00 0.00 0.00 85 1011.6